This is the latest recevied weather packets stored in our database for station/object G1OCN-WX. If no packets are shown the sender has not sent any weather packets the latest 10 day(s).
| Time | Temp. | Humidity | Pressure | Rain* | Wind** | Luminosity | Snow |
|---|---|---|---|---|---|---|---|
| 1787753062 | 20.56° C | 75% | 1011.9 hPa | 0 mm | - | - | - |
| 1787752162 | 20.56° C | 77% | 1012.1 hPa | 0 mm | - | - | - |
| 1787751262 | 20.56° C | 76% | 1012.1 hPa | 0 mm | - | - | - |
| 1787750362 | 20.56° C | 76% | 1012.2 hPa | 0 mm | - | - | - |
| 1787749462 | 20.56° C | 75% | 1012.3 hPa | 0 mm | - | - | - |
| 1787748562 | 20.56° C | 75% | 1012.4 hPa | 0 mm | - | - | - |
| 1787747662 | 20° C | 75% | 1012.4 hPa | 0 mm | - | - | - |
| 1787746762 | 20.56° C | 74% | 1012.5 hPa | 0 mm | - | - | - |
| 1787745862 | 20.56° C | 76% | 1012.5 hPa | 0 mm | - | - | - |
| 1787744962 | 20.56° C | 76% | 1012.7 hPa | 0 mm | - | - | - |
| 1787744062 | 20.56° C | 77% | 1012.7 hPa | 0 mm | - | - | - |
| 1787743162 | 20.56° C | 76% | 1012.7 hPa | 0 mm | - | - | - |
| 1787742262 | 21.11° C | 74% | 1012.8 hPa | 0 mm | - | - | - |
| 1787741362 | 20.56° C | 74% | 1012.6 hPa | 0 mm | - | - | - |
| 1787740462 | 20° C | 75% | 1012.6 hPa | 0 mm | - | - | - |
| 1787739562 | 20.56° C | 75% | 1012.7 hPa | 0 mm | - | - | - |
| 1787738661 | 20.56° C | 76% | 1012.8 hPa | 0 mm | - | - | - |
| 1787737761 | 20.56° C | 76% | 1012.6 hPa | 0 mm | - | - | - |
| 1787736861 | 20° C | 77% | 1012.6 hPa | 0 mm | - | - | - |
| 1787735961 | 20.56° C | 77% | 1012.7 hPa | 0 mm | - | - | - |
| 1787735061 | 20° C | 78% | 1012.8 hPa | 0 mm | - | - | - |
| 1787734161 | 19.44° C | 79% | 1012.7 hPa | 0 mm | - | - | - |
| 1787733261 | 19.44° C | 81% | 1012.7 hPa | 0 mm | - | - | - |
| 1787732361 | 18.89° C | 82% | 1012.6 hPa | 0 mm | - | - | - |
| 1787731461 | 18.33° C | 83% | 1012.6 hPa | 0 mm | - | - | - |
* Rain latest hour (hover to see other rain measurements)
** Current wind speed in m/s (hover to see current wind gust speed)